Flag for Germany Weather past 2 weeks in Rotenburg (Wümme), Lower Saxony, Germany

Now
40 °F

Thunderstorms. Passing clouds.


Feels Like: 34 °F
Forecast: 38 / 44 °F
Wind: 8 mph from West

Location: Bremen

Current Time: Dec 20, 2014 at 8:05:48 PM

Latest Report: Dec 20, 2014 at 7:00 PM


Visibility: 19 mi

Pressure: 29.96 "Hg

Humidity: 82%

Dew point: 35 °F

Location of Rotenburg (Wümme)Location

Historic Weather in Rotenburg (Wümme) — Graph

°F

Rotenburg (Wümme) temperature yesterday

Maximum temperature yesterday: 53 °F (at 2:00 AM)
Minimum temperature yesterday: 42 °F (at 11:00 PM)
Average temperature yesterday: 49 °F

Past Weeks' High & Low Weather Summary

 TemperatureHumidityPressure
High54 °F (Dec 18, 8:00 PM)100% (Dec 6, 9:00 PM)30.34 "Hg (Dec 6, 9:00 PM)
Low33 °F (Dec 13, 9:00 PM)69% (Dec 10, 5:00 AM)29.23 "Hg (Dec 12, 12:00 PM)
Average41 °F89%29.85 "Hg
* Reported Dec 5 6:00 PM — Dec 20 6:00 PM, Rotenburg (Wümme), Weather by CustomWeather, © 2014

Note: Actual official high and low records may vary slightly from our data, if they occured in-between our weather recording intervals... More about our weather records

Advertising

Rotenburg (Wümme) weather history for previous 24 hours

 ConditionsComfort  
Time TempWeatherWind HumidityBarometerVisibility
6:00 PM
Dec 20
40 °FThundershowers. Overcast.15 mph87%29.92 "Hg6 mi
5:00 PM41 °FSprinkles. Low clouds.14 mph85%29.87 "Hg7 mi
4:00 PM42 °FOvercast.13 mph83%29.84 "Hg7 mi
3:00 PM42 °FScattered clouds.9 mph85%29.83 "Hg19 mi
2:00 PM41 °FThunderstorms. Scattered clouds.12 mph85%29.84 "Hg19 mi
1:00 PM39 °FThundershowers. Low clouds.12 mph93%29.84 "Hg2 mi
12:00 PM46 °FOvercast.15 mph73%29.82 "Hg14 mi
11:00 AM45 °FOvercast.14 mph76%29.84 "Hg14 mi
9:00 AM45 °FOvercast.13 mph75%29.86 "Hg16 mi
8:00 AM45 °FOvercast.13 mph75%29.87 "Hg19 mi
7:00 AM44 °FSprinkles. Passing clouds.12 mph78%29.90 "Hg19 mi
6:00 AM44 °FPassing clouds.13 mph77%29.90 "Hg19 mi
5:00 AM45 °FPassing clouds.13 mph74%29.91 "Hg19 mi
3:00 AM43 °FPassing clouds.12 mph79%29.91 "Hg19 mi
2:00 AM42 °FPassing clouds.10 mph79%29.90 "Hg19 mi
1:00 AM42 °FPassing clouds.12 mph80%29.90 "Hg19 mi
12:00 AM42 °FPassing clouds.10 mph81%29.89 "Hg19 mi
11:00 PM
Dec 19
42 °FSprinkles. Passing clouds.8 mph88%29.88 "Hg19 mi
9:00 PM42 °FClear.9 mph81%29.87 "Hg19 mi
8:00 PM44 °FQuite cool.12 mph76%29.85 "HgN/A
Weather by CustomWeather, © 2014

See weather overviewHow to use our weather pages